Wind_Speed
16 15 15 16 17 18 19 17 17 15 11 9 6 3 7 12 12 4 1 7 9 6 4 2 4 4 6 7 3 3 3 5 10 7 1 11 4 4 4 4 2 5 11 18 16
19 17 16 16 16 16 17 17 16 16 11 7 1 6 11 7 2 5 8 10 10 5 4 3 6 7 9 10 6 5 3 5 6 7 6 8 3 12 3 8 6 12 10 11 15
19 19 19 17 17 17 15 16 16 15 10 5 1 8 10 3 4 5 7 4 1 9 1 5 5 9 11 7 7 9 4 6 6 10 10 5 1 3 1 5 10 18 14 12 13
17 18 19 19 18 18 16 14 14 14 9 4 3 8 6 5 2 3 5 3 2 2 2 4 7 9 5 6 14 3 11 2 4 4 3 1 2 1 9 2 7 11 19 15 13
20 19 18 18 19 18 18 14 11 10 8 1 6 7 2 5 3 6 5 3 1 0 4 6 9 10 6 4 5 6 9 3 2 2 4 4 5 7 9 10 5 11 14 13 13
21 22 19 18 17 18 18 15 11 5 4 1 4 4 4 9 6 6 7 1 2 2 3 5 5 8 5 4 3 5 7 3 5 7 6 5 9 13 9 13 12 10 11 12 13
21 21 22 21 17 16 17 16 11 5 2 3 5 3 9 11 4 1 1 5 4 4 3 5 2 4 2 2 2 2 4 6 7 9 5 1 8 9 18 16 18 13 13 13 12
21 22 22 22 20 17 15 14 12 6 5 4 4 3 7 10 6 6 4 1 3 3 5 4 6 2 2 5 2 4 5 4 8 8 6 5 7 7 14 12 17 18 17 14 13
21 20 22 23 22 19 16 13 10 8 7 5 4 4 7 7 9 7 8 5 5 4 4 4 6 2 3 4 4 6 5 8 5 9 5 7 6 7 13 14 16 21 19 19 18
20 21 21 22 23 21 17 11 8 7 8 6 9 4 12 8 12 8 8 9 6 6 5 5 5 4 5 5 4 2 5 4 3 8 7 7 13 8 12 12 15 18 22 21 19
20 21 22 21 20 24 20 8 5 4 17 12 10 6 8 9 10 10 10 8 6 8 6 13 5 6 12 11 6 6 7 6 6 5 3 10 13 10 14 19 16 17 16 23 12
23 20 21 21 21 18 22 5 9 5 8 25 23 16 7 11 8 11 13 10 8 10 11 4 8 1 6 7 1 4 6 6 4 8 2 9 13 9 9 13 26 19 20 19 13
26 23 21 20 21 17 19 12 16 10 7 10 29 25 16 16 11 20 17 9 6 9 10 8 4 5 5 4 5 7 6 3 2 2 11 8 10 10 3 7 2 4 10 15 18
24 26 22 17 18 12 11 11 7 6 4 8 8 10 23 11 8 13 19 7 6 7 8 6 7 6 5 6 5 5 6 2 3 3 2 4 5 3 7 6 5 11 14 19 19
23 24 26 20 12 13 12 8 3 2 4 11 11 11 18 15 17 11 14 6 7 6 2 3 7 6 6 2 2 4 3 2 3 6 6 2 1 1 9 8 8 8 17 20 21
22 21 27 23 22 16 13 10 6 2 8 7 8 9 17 18 9 11 7 4 2 1 2 4 4 2 2 6 4 6 3 6 3 3 1 4 3 4 6 9 10 12 18 20 18
26 21 29 25 25 24 13 10 3 6 1 8 7 13 16 12 12 10 12 9 6 6 6 6 6 3 4 7 3 3 3 1 3 1 4 4 2 8 5 5 12 10 21 21 17
28 21 26 27 28 15 16 4 9 11 18 5 8 15 11 14 11 12 11 8 14 8 6 6 4 8 7 2 2 7 1 3 4 1 0 2 5 2 7 7 21 25 22 20 19
25 25 25 31 29 23 20 5 7 8 6 11 12 10 11 11 4 11 12 8 9 13 7 5 4 4 2 2 4 5 4 1 2 1 2 5 3 3 5 4 3 18 22 21 19
23 22 28 30 27 30 5 16 10 16 3 9 10 10 12 17 7 10 11 9 9 14 2 3 5 5 3 0 1 2 4 4 2 2 3 4 3 4 7 8 6 6 16 19 18
20 11 16 26 34 13 8 7 12 26 4 6 5 6 7 8 10 7 5 1 7 5 7 3 4 3 5 7 7 2 2 2 2 2 3 2 1 5 7 9 9 8 14 15 15
19 7 14 24 5 3 7 8 16 10 19 1 2 6 4 8 9 7 7 2 13 10 8 4 4 4 3 4 4 2 5 5 4 4 1 2 5 4 6 7 6 14 14 14 14
13 13 18 19 9 6 6 15 11 8 4 5 5 6 4 6 3 6 6 4 18 8 9 8 2 4 2 2 1 3 5 4 3 2 6 5 4 4 5 5 6 4 2 4 7
8 4 5 21 7 16 12 12 8 14 8 3 5 3 0 3 4 6 3 1 10 5 6 7 4 4 5 4 5 4 5 8 5 3 4 7 3 8 9 8 8 12 14 15 13
10 3 5 4 7 2 9 8 11 7 12 16 4 9 6 5 5 4 6 4 4 6 3 4 4 3 0 7 4 4 5 10 10 12 6 3 12 3 3 2 3 6 4 4 5
7 6 4 1 8 12 5 6 19 14 8 5 8 13 10 6 7 8 9 5 5 6 4 2 2 2 3 6 7 5 9 12 16 11 14 13 20 9 9 8 6 4 4 3 6
14 16 7 7 5 6 9 10 12 14 13 14 18 12 13 9 3 3 14 16 10 8 3 6 5 3 3 5 1 6 17 18 8 6 14 9 10 5 4 5 6 4 2 5 8
Wind_Direction
342 343 347 348 352 350 349 349 345 340 324 317 318 79 101 113 105 81 218 218 227 269 200 103 241 210 191 215 186 232 257 250 264 261 164 99 132 126 351 105 125 64 93 121 140
334 338 339 342 347 352 349 346 346 341 335 320 272 128 124 115 100 210 252 258 262 232 158 216 211 192 199 204 186 218 235 270 13 16 34 114 262 150 167 211 131 104 110 135 143
329 331 333 337 338 346 348 349 346 345 341 330 203 154 137 62 344 182 267 257 222 146 3 209 236 195 231 208 206 208 246 38 52 29 7 98 349 30 212 246 196 171 153 150 153
327 328 327 329 333 335 342 347 347 345 345 344 151 153 156 29 312 246 256 210 154 149 183 201 205 206 231 197 226 261 243 347 35 60 350 15 261 139 233 353 27 171 157 155 163
316 321 323 322 326 329 333 337 341 346 343 1 166 167 17 273 257 263 235 237 267 22 204 202 211 213 229 214 189 234 278 149 292 96 262 293 262 250 267 234 153 129 138 160 170
308 312 316 318 319 324 327 329 329 331 345 134 168 165 311 279 253 275 257 208 170 197 205 206 222 241 319 224 193 15 273 174 221 227 236 247 248 230 233 219 165 158 163 174 172
305 306 310 312 313 318 322 322 318 295 244 180 182 221 289 269 205 242 131 198 164 160 183 199 209 193 216 253 228 296 273 232 225 216 251 234 260 232 234 191 175 175 187 182 174
304 304 306 309 310 310 317 319 310 271 236 219 223 221 253 243 221 222 140 105 119 133 174 185 157 228 248 93 206 227 228 230 176 178 146 139 272 224 195 192 189 183 192 178 182
307 306 306 307 309 308 309 314 302 267 232 238 242 209 264 247 211 184 173 169 138 126 133 141 148 208 162 216 198 203 259 210 155 180 144 186 280 88 176 178 215 193 194 190 195
301 306 309 306 314 310 306 309 294 262 243 236 248 258 221 233 183 182 186 168 158 152 145 172 206 216 212 200 156 314 226 266 182 189 212 219 246 268 179 207 216 196 203 205 191
288 292 298 306 310 328 306 307 307 262 210 205 207 206 151 166 185 184 185 169 180 199 213 195 221 208 207 214 262 329 313 325 106 113 193 237 254 245 203 193 208 222 220 212 204
280 283 289 295 303 322 315 265 291 299 292 244 244 237 199 182 165 192 182 190 189 213 212 138 228 230 55 73 130 251 262 279 61 129 174 262 265 237 220 187 199 220 214 226 167
269 270 281 289 297 309 304 251 262 284 261 268 222 218 191 189 206 187 181 207 209 229 184 237 93 110 136 144 208 225 243 297 325 340 226 277 274 230 221 82 65 235 251 195 155
268 264 267 273 284 263 292 282 267 236 272 199 194 233 194 184 225 198 187 201 204 236 214 226 115 152 163 225 205 269 40 53 292 305 284 181 289 165 133 171 175 219 146 141 153
266 257 257 260 247 251 250 278 246 147 272 137 144 145 176 177 130 160 176 188 227 190 142 98 144 181 203 150 122 98 45 4 325 279 300 236 132 356 144 175 179 190 154 159 165
264 259 251 245 229 240 243 265 160 223 244 165 134 191 165 205 165 135 170 195 326 133 185 76 5 229 76 88 59 106 193 203 248 238 349 218 173 215 179 191 162 179 164 157 164
258 263 248 243 230 235 209 177 193 223 83 170 179 180 184 178 165 175 182 185 173 150 187 149 181 86 161 128 146 211 255 305 345 349 226 136 209 258 122 126 162 161 162 163 170
253 260 249 232 227 195 161 181 206 227 237 138 155 164 194 159 190 189 170 200 227 250 147 162 198 160 193 255 183 188 325 172 217 249 177 94 235 215 114 58 149 162 170 169 177
260 257 244 228 227 219 169 200 221 211 282 148 148 170 212 180 153 168 216 203 198 205 185 165 111 58 29 55 8 144 204 318 24 185 59 219 180 76 82 101 97 152 165 173 186
262 263 244 226 229 190 200 216 213 254 336 170 184 201 184 184 156 172 184 214 216 176 132 149 105 175 105 137 300 341 144 80 355 140 254 253 222 176 177 176 186 180 171 186 198
252 238 231 227 197 173 208 227 215 244 216 201 241 228 194 171 173 183 204 70 130 149 107 113 104 129 136 209 174 152 209 59 78 111 190 297 268 355 159 167 180 189 193 203 214
240 232 212 202 163 191 199 187 231 213 235 264 308 263 263 155 175 195 206 80 129 137 156 163 117 148 176 63 19 302 214 155 143 237 188 154 274 55 81 63 97 184 196 209 223
229 230 185 198 220 208 206 221 247 212 184 208 227 268 55 144 136 166 140 24 136 168 161 182 192 103 92 29 27 213 173 118 106 79 197 149 251 124 124 147 167 162 186 244 239
220 194 216 211 283 207 204 208 217 202 234 222 282 114 96 166 81 165 102 140 150 186 95 129 176 155 179 168 130 187 197 169 150 152 205 215 200 190 191 187 188 200 216 232 244
220 270 185 188 233 150 180 182 189 162 203 197 234 245 181 178 127 162 105 114 164 128 157 118 170 122 119 134 148 162 174 181 197 213 181 186 226 197 166 169 17 57 36 347 326
224 195 198 145 211 195 199 215 202 188 151 208 226 221 206 169 172 184 133 160 182 166 159 7 151 113 211 179 178 226 205 205 216 234 254 271 280 289 296 91 64 34 343 307 305
230 248 277 174 163 177 212 214 220 197 203 201 209 228 245 203 63 328 142 157 148 144 130 151 131 138 148 107 228 280 233 202 189 199 214 221 234 268 228 208 164 157 263 284 300
Height
1487 1484 1481 1478 1476 1474 1472 1468 1466 1464 1461 1460 1459 1458 1458 1458 1459 1461 1462 1461 1462 1463 1465 1466 1469 1470 1471 1472 1473 1473 1475 1471 1464 1457 1455 1462 1463 1469 1473 1475 1477 1478 1478 1483 1486
1487 1484 1481 1478 1475 1472 1470 1468 1465 1462 1460 1459 1459 1458 1459 1459 1460 1461 1461 1462 1462 1462 1464 1467 1468 1470 1471 1470 1472 1472 1472 1463 1463 1461 1460 1464 1467 1469 1474 1475 1477 1479 1482 1484 1487
1486 1484 1481 1478 1476 1472 1468 1466 1465 1462 1459 1458 1458 1459 1460 1460 1459 1458 1459 1460 1461 1461 1464 1465 1467 1468 1468 1468 1469 1467 1468 1462 1463 1465 1464 1464 1469 1470 1472 1473 1473 1476 1480 1484 1487
1485 1482 1480 1478 1475 1472 1468 1465 1462 1461 1458 1457 1459 1461 1461 1460 1460 1457 1459 1460 1460 1461 1463 1465 1466 1467 1466 1466 1465 1468 1462 1463 1465 1468 1468 1467 1470 1470 1473 1473 1472 1472 1476 1482 1486
1483 1481 1478 1476 1473 1471 1468 1464 1461 1460 1459 1458 1459 1461 1462 1462 1460 1457 1458 1459 1460 1461 1463 1465 1465 1465 1464 1462 1464 1467 1464 1464 1466 1469 1470 1470 1471 1472 1470 1472 1473 1474 1477 1481 1485
1482 1479 1476 1474 1471 1469 1467 1464 1461 1459 1459 1459 1459 1461 1464 1463 1458 1456 1457 1459 1460 1461 1462 1463 1463 1463 1463 1462 1464 1464 1463 1463 1465 1469 1470 1470 1470 1470 1468 1469 1472 1474 1478 1481 1484
1479 1477 1474 1472 1470 1467 1465 1463 1460 1458 1458 1459 1459 1460 1462 1461 1457 1456 1457 1458 1459 1460 1461 1461 1462 1463 1463 1464 1465 1466 1467 1464 1464 1467 1468 1469 1469 1463 1465 1466 1470 1474 1477 1480 1482
1477 1475 1472 1470 1468 1465 1463 1461 1459 1457 1457 1458 1459 1459 1458 1456 1456 1456 1457 1459 1459 1459 1460 1460 1461 1463 1464 1465 1466 1467 1468 1466 1454 1463 1467 1471 1470 1453 1460 1464 1467 1471 1475 1478 1481
1474 1472 1470 1468 1466 1464 1461 1458 1457 1457 1455 1458 1459 1459 1455 1452 1454 1456 1457 1459 1459 1459 1459 1460 1462 1463 1465 1465 1467 1465 1469 1462 1462 1459 1464 1469 1465 1455 1458 1461 1464 1467 1471 1474 1477
1471 1470 1467 1466 1464 1462 1460 1457 1455 1454 1456 1456 1458 1460 1452 1449 1451 1454 1455 1457 1458 1459 1461 1461 1462 1461 1462 1464 1467 1459 1462 1449 1452 1459 1460 1463 1462 1458 1457 1460 1462 1464 1467 1470 1472
1467 1467 1466 1463 1461 1460 1459 1457 1457 1454 1454 1445 1445 1443 1444 1447 1449 1453 1454 1455 1457 1458 1457 1457 1460 1459 1454 1452 1451 1455 1455 1454 1449 1457 1462 1462 1457 1453 1453 1456 1460 1461 1463 1466 1468
1462 1462 1461 1461 1459 1457 1457 1456 1453 1453 1447 1441 1440 1442 1442 1443 1448 1451 1453 1454 1454 1454 1452 1457 1457 1448 1447 1450 1454 1457 1458 1457 1453 1457 1463 1459 1452 1446 1446 1449 1452 1456 1458 1462 1464
1457 1457 1457 1456 1456 1454 1454 1453 1451 1451 1448 1431 1430 1436 1438 1441 1441 1444 1449 1449 1448 1449 1447 1449 1449 1449 1450 1454 1456 1456 1458 1456 1458 1458 1455 1458 1449 1440 1443 1446 1450 1453 1455 1458 1461
1449 1451 1452 1453 1455 1449 1450 1448 1448 1450 1448 1425 1428 1429 1435 1436 1438 1438 1442 1447 1445 1445 1443 1444 1448 1449 1452 1452 1452 1459 1458 1460 1461 1464 1465 1453 1470 1440 1445 1450 1452 1454 1454 1457 1463
1441 1443 1446 1446 1447 1447 1445 1446 1446 1450 1447 1416 1424 1427 1429 1431 1430 1437 1440 1444 1442 1441 1444 1447 1449 1451 1451 1450 1451 1459 1461 1463 1464 1468 1464 1450 1471 1440 1445 1451 1452 1453 1455 1459 1464
1435 1436 1439 1438 1440 1442 1442 1445 1447 1452 1444 1415 1420 1424 1427 1425 1428 1435 1440 1442 1442 1440 1444 1446 1448 1448 1447 1453 1455 1459 1461 1463 1463 1467 1489 1452 1458 1452 1445 1442 1448 1452 1454 1458 1463
1427 1428 1430 1431 1431 1436 1436 1441 1449 1438 1407 1411 1414 1418 1421 1419 1423 1431 1434 1438 1438 1450 1447 1446 1449 1451 1451 1455 1458 1460 1461 1476 1482 1488 1478 1452 1459 1445 1434 1432 1440 1448 1453 1458 1463
1419 1421 1421 1423 1425 1430 1431 1438 1434 1409 1405 1402 1404 1413 1416 1413 1417 1425 1431 1433 1431 1428 1436 1450 1458 1449 1450 1448 1450 1457 1457 1471 1463 1468 1460 1455 1462 1438 1435 1434 1437 1444 1452 1458 1462
1413 1413 1413 1414 1421 1424 1431 1428 1420 1405 1391 1400 1408 1411 1413 1407 1409 1418 1423 1423 1418 1424 1433 1438 1449 1449 1450 1450 1453 1454 1465 1458 1461 1449 1477 1450 1437 1441 1439 1441 1441 1445 1451 1456 1460
1406 1406 1404 1410 1416 1419 1425 1410 1409 1399 1393 1395 1400 1399 1403 1400 1411 1415 1417 1408 1412 1413 1420 1424 1458 1449 1454 1454 1455 1454 1456 1472 1478 1482 1464 1436 1424 1439 1445 1445 1445 1447 1449 1453 1457
1401 1399 1395 1403 1406 1410 1408 1400 1400 1397 1395 1394 1392 1393 1391 1397 1406 1411 1409 1409 1407 1416 1421 1425 1438 1455 1455 1455 1453 1462 1458 1461 1466 1474 1473 1462 1441 1433 1434 1438 1443 1446 1449 1452 1454
1393 1393 1391 1395 1401 1396 1395 1397 1397 1388 1394 1395 1395 1393 1384 1392 1404 1408 1407 1404 1408 1414 1424 1427 1437 1459 1447 1449 1450 1447 1453 1460 1470 1481 1482 1482 1463 1436 1436 1437 1439 1443 1446 1449 1450
1384 1385 1385 1386 1385 1386 1388 1389 1389 1387 1394 1397 1393 1388 1384 1389 1407 1402 1401 1408 1410 1416 1420 1424 1438 1459 1454 1456 1452 1451 1449 1459 1464 1466 1473 1478 1452 1438 1438 1439 1440 1443 1445 1446 1447
1382 1380 1383 1383 1379 1376 1384 1386 1389 1387 1390 1393 1391 1388 1390 1388 1394 1401 1411 1411 1414 1417 1418 1421 1423 1431 1436 1438 1448 1462 1455 1451 1459 1474 1455 1448 1434 1439 1436 1437 1438 1440 1441 1441 1443
1374 1371 1368 1374 1374 1376 1379 1382 1381 1383 1389 1392 1394 1391 1390 1398 1397 1400 1408 1415 1417 1419 1420 1426 1436 1429 1425 1432 1438 1445 1455 1452 1456 1443 1449 1425 1427 1425 1430 1433 1433 1435 1437 1438 1440
1368 1369 1368 1368 1371 1378 1380 1375 1376 1376 1383 1389 1390 1388 1386 1390 1388 1396 1403 1410 1414 1420 1425 1429 1436 1426 1428 1426 1432 1438 1439 1443 1443 1442 1440 1435 1429 1424 1424 1427 1431 1434 1436 1437 1438
1364 1368 1369 1362 1365 1371 1369 1373 1371 1371 1379 1379 1385 1390 1387 1384 1384 1386 1390 1396 1402 1414 1426 1431 1432 1438 1436 1432 1434 1441 1421 1424 1430 1428 1430 1443 1419 1421 1424 1426 1429 1432 1434 1435 1435